Location: ????????
(55.6333°N, 37.7000°E)
Time: 11:07:45
(UTC+00:00)

H-2A R/B - Pass Details

Date: 19 May 2025
Orbit: 492 x 574 km, 98.2° (Epoch: 14 June)

Event Time Altitude Azimuth Distance (km) Brightness Sun altitude
Exits shadow 22:49:00 19° 210° (SSW) 1,342 3.7 -12.3°
Maximum altitude 22:51:12 33° 262° (W) 928 3.2 -12.2°
Drops below altitude 10° 22:54:46 10° 328° (NNW) 1,802 5.5 -12.1°
Sets 22:57:01 0° 338° (NNW) 2,682 6.6 -11.9°
